Find EXO-0

NORAD ID: 59175 Int'l Des: 2023-174 Owner: EXOTR Country: F operational
LEOCIRCULARRETROGRADESSO

实时位置

正在加载3D地球...

关于 EXO-0

正在加载描述...

即将过境

Passes for default location (London). Set your location on the main map for personalized predictions.

高度历史

Loading altitude history...

两行轨道根数

1 59175U 23174DK 26106.49778044 .00005372 00000-0 16744-3 0 9994
2 59175 97.3836 186.6533 0009724 39.2410 320.9536 15.33634645135588
Epoch: Apr 16, 2026 • Age: 14 hours

当前状态

高度 473.7 km
速度 7.64 km/s
星下点 80.09°N, 101.51°W
发射日期 Nov 11, 2023
运行时间 2.4 years
类型 other

技术详情

分类 Payload
质量 20.00 kg
干质量 20.00 kg
总质量 20.00 kg
长度 0.40 m
直径 0.10 m
跨度 0.40 m
形状 Box
制造商 ENDUR
平台类型 Cubesat 8U
阶段状态 In Orbit
所有者/国家 EXOTR/F

Most Searched